Year,Month,Day,Hour,Minute,Value (Times are PST for temperature in C)
2012,01,14,09,04,2.60
2012,01,14,09,05,2.60
2012,01,14,09,06,2.50
2012,01,14,09,07,2.50
2012,01,14,09,08,2.50
2012,01,14,09,09,2.50
2012,01,14,09,10,2.50
2012,01,14,09,11,2.50
2012,01,14,09,12,2.50
2012,01,14,09,13,2.60
2012,01,14,09,14,2.60
2012,01,14,09,15,2.60
2012,01,14,09,16,2.60
2012,01,14,09,17,2.60
2012,01,14,09,18,2.60
2012,01,14,09,19,2.70
2012,01,14,09,20,2.70
2012,01,14,09,21,2.70
2012,01,14,09,22,2.70
2012,01,14,09,23,2.70
2012,01,14,09,24,2.70
2012,01,14,09,25,2.70
2012,01,14,09,26,2.70
2012,01,14,09,27,2.70
2012,01,14,09,28,2.70
2012,01,14,09,29,2.70
2012,01,14,09,30,2.70
2012,01,14,09,31,2.70
2012,01,14,09,32,2.70
2012,01,14,09,33,2.70
2012,01,14,09,34,2.70
2012,01,14,09,35,2.70
2012,01,14,09,36,2.70
2012,01,14,09,37,2.70
2012,01,14,09,38,2.70
2012,01,14,09,39,2.70
2012,01,14,09,40,2.70
2012,01,14,09,41,2.70
2012,01,14,09,42,2.60
2012,01,14,09,43,2.60
2012,01,14,09,44,2.60
2012,01,14,09,45,2.70
2012,01,14,09,46,2.70
2012,01,14,09,47,2.70
2012,01,14,09,48,2.70
2012,01,14,09,49,2.70
2012,01,14,09,50,2.60
2012,01,14,09,51,2.60
2012,01,14,09,52,2.70
2012,01,14,09,53,2.70
2012,01,14,09,54,2.70
2012,01,14,09,55,2.70
2012,01,14,09,56,2.70
2012,01,14,09,57,2.70
2012,01,14,09,58,2.70
2012,01,14,09,59,2.70
2012,01,14,10,00,2.70
2012,01,14,10,01,2.70
2012,01,14,10,02,2.70
2012,01,14,10,03,2.70
2012,01,14,10,04,2.70
2012,01,14,10,05,2.70
2012,01,14,10,06,2.70
2012,01,14,10,07,2.70
2012,01,14,10,08,2.70
2012,01,14,10,09,2.70
2012,01,14,10,10,2.60
2012,01,14,10,11,2.60
2012,01,14,10,12,2.60
2012,01,14,10,13,2.70
2012,01,14,10,14,2.70
2012,01,14,10,15,2.70
2012,01,14,10,16,2.70
2012,01,14,10,17,2.70
2012,01,14,10,18,2.70
2012,01,14,10,19,2.70
2012,01,14,10,20,2.70
2012,01,14,10,21,2.70
2012,01,14,10,22,2.80
2012,01,14,10,23,2.80
2012,01,14,10,24,2.80
2012,01,14,10,25,2.90
2012,01,14,10,26,2.80
2012,01,14,10,27,2.80
2012,01,14,10,28,2.80
2012,01,14,10,29,2.80
2012,01,14,10,30,2.80
2012,01,14,10,31,2.80
2012,01,14,10,32,2.80
2012,01,14,10,33,2.80
2012,01,14,10,34,2.80
2012,01,14,10,35,2.70
2012,01,14,10,36,2.70
2012,01,14,10,37,2.70
2012,01,14,10,38,2.70
2012,01,14,10,39,2.70
2012,01,14,10,40,2.70
2012,01,14,10,41,2.70
2012,01,14,10,42,2.70
2012,01,14,10,43,2.70
2012,01,14,10,44,2.70
2012,01,14,10,45,2.70
2012,01,14,10,46,2.70
2012,01,14,10,47,2.70
2012,01,14,10,48,2.70
2012,01,14,10,49,2.70
2012,01,14,10,50,2.70
2012,01,14,10,51,2.70
2012,01,14,10,52,2.70
2012,01,14,10,53,2.70
2012,01,14,10,54,2.80
2012,01,14,10,55,2.80
2012,01,14,10,56,2.80
2012,01,14,10,57,2.80
2012,01,14,10,58,2.90
2012,01,14,10,59,2.90
2012,01,14,11,00,2.90
2012,01,14,11,01,2.90
2012,01,14,11,02,2.90
2012,01,14,11,03,2.90
2012,01,14,11,04,2.90
2012,01,14,11,05,2.90
2012,01,14,11,06,2.90
2012,01,14,11,07,2.90
2012,01,14,11,08,2.90
2012,01,14,11,09,2.90
2012,01,14,11,10,2.90
2012,01,14,11,11,2.90
2012,01,14,11,12,2.90
2012,01,14,11,13,2.90
2012,01,14,11,14,3.00
2012,01,14,11,15,3.00
2012,01,14,11,16,3.10
2012,01,14,11,17,3.10
2012,01,14,11,18,3.10
2012,01,14,11,19,3.10
2012,01,14,11,20,3.10
2012,01,14,11,21,3.10
2012,01,14,11,22,3.10
2012,01,14,11,23,3.10
2012,01,14,11,24,3.20
2012,01,14,11,25,3.20
2012,01,14,11,26,3.20
2012,01,14,11,27,3.30
2012,01,14,11,28,3.30
2012,01,14,11,29,3.30
2012,01,14,11,30,3.30
2012,01,14,11,31,3.30
2012,01,14,11,32,3.30
2012,01,14,11,33,3.30
2012,01,14,11,34,3.20
2012,01,14,11,35,3.20
2012,01,14,11,36,3.20
2012,01,14,11,37,3.20
2012,01,14,11,38,3.20
2012,01,14,11,39,3.20
2012,01,14,11,40,3.20
2012,01,14,11,41,3.20
2012,01,14,11,42,3.30
2012,01,14,11,43,3.30
2012,01,14,11,44,3.30
2012,01,14,11,45,3.30
2012,01,14,11,46,3.30
2012,01,14,11,47,3.30
2012,01,14,11,48,3.30
2012,01,14,11,49,3.40
2012,01,14,11,50,3.40
2012,01,14,11,51,3.50
2012,01,14,11,52,3.50
2012,01,14,11,53,3.50
2012,01,14,11,54,3.50
2012,01,14,11,55,3.60
2012,01,14,11,56,3.70
2012,01,14,11,57,3.70
2012,01,14,11,58,3.70
2012,01,14,11,59,3.70
2012,01,14,12,00,3.80
2012,01,14,12,01,3.80
2012,01,14,12,02,3.80
2012,01,14,12,03,3.80
2012,01,14,12,04,3.80
2012,01,14,12,05,3.90
2012,01,14,12,06,4.00
2012,01,14,12,07,4.00
2012,01,14,12,08,4.00
2012,01,14,12,09,4.00
2012,01,14,12,10,4.10
2012,01,14,12,11,4.10
2012,01,14,12,12,4.20
2012,01,14,12,13,4.20
2012,01,14,12,14,4.10
2012,01,14,12,15,4.20
2012,01,14,12,16,4.10
2012,01,14,12,17,4.10
2012,01,14,12,18,4.20
2012,01,14,12,19,4.20
2012,01,14,12,20,4.20
2012,01,14,12,21,4.20
2012,01,14,12,22,4.20
2012,01,14,12,23,4.20
2012,01,14,12,24,4.20
2012,01,14,12,25,4.20
2012,01,14,12,26,4.20
2012,01,14,12,27,4.20
2012,01,14,12,28,4.20
2012,01,14,12,29,4.20
2012,01,14,12,30,4.20
2012,01,14,12,31,4.20
2012,01,14,12,32,4.20
2012,01,14,12,33,4.20
2012,01,14,12,34,4.30
2012,01,14,12,35,4.30
2012,01,14,12,36,4.30
2012,01,14,12,37,4.20
2012,01,14,12,38,4.20
2012,01,14,12,39,4.30
2012,01,14,12,40,4.30
2012,01,14,12,41,4.30
2012,01,14,12,42,4.30
2012,01,14,12,43,4.30
2012,01,14,12,44,4.30
2012,01,14,12,45,4.30
2012,01,14,12,46,4.20
2012,01,14,12,47,4.10
2012,01,14,12,48,4.00
2012,01,14,12,49,4.00
2012,01,14,12,50,3.90
2012,01,14,12,51,3.80
2012,01,14,12,52,3.80
2012,01,14,12,53,3.70
2012,01,14,12,54,3.70
2012,01,14,12,55,3.60
2012,01,14,12,56,3.60
2012,01,14,12,57,3.50
2012,01,14,12,58,3.50
2012,01,14,12,59,3.50
2012,01,14,13,00,3.50
2012,01,14,13,01,3.50
2012,01,14,13,02,3.50
2012,01,14,13,03,3.50
2012,01,14,13,04,3.50
2012,01,14,13,05,3.60
2012,01,14,13,06,3.60
2012,01,14,13,07,3.60
2012,01,14,13,08,3.60
2012,01,14,13,09,3.60
2012,01,14,13,10,3.50
2012,01,14,13,11,3.50
2012,01,14,13,12,3.50
2012,01,14,13,13,3.50
2012,01,14,13,14,3.50
2012,01,14,13,15,3.50
2012,01,14,13,16,3.50
2012,01,14,13,17,3.50
2012,01,14,13,18,3.40
2012,01,14,13,19,3.40
2012,01,14,13,20,3.40
2012,01,14,13,21,3.30
2012,01,14,13,22,3.30
2012,01,14,13,23,3.30
2012,01,14,13,24,3.30
2012,01,14,13,25,3.30
2012,01,14,13,26,3.30
2012,01,14,13,27,3.30
2012,01,14,13,28,3.30
2012,01,14,13,29,3.30
2012,01,14,13,30,3.30
2012,01,14,13,31,3.30
2012,01,14,13,32,3.30
2012,01,14,13,33,3.30
2012,01,14,13,34,3.40
2012,01,14,13,35,3.40
2012,01,14,13,36,3.50
2012,01,14,13,37,3.50
2012,01,14,13,38,3.60
2012,01,14,13,39,3.60
2012,01,14,13,40,3.60
2012,01,14,13,41,3.60
2012,01,14,13,42,3.70
2012,01,14,13,43,3.80
2012,01,14,13,44,3.80
2012,01,14,13,45,3.80
2012,01,14,13,46,3.70
2012,01,14,13,47,3.60
2012,01,14,13,48,3.60
2012,01,14,13,49,3.60
2012,01,14,13,50,3.60
2012,01,14,13,51,3.60
2012,01,14,13,52,3.50
2012,01,14,13,53,3.50
2012,01,14,13,54,3.50
2012,01,14,13,55,3.50
2012,01,14,13,56,3.50
2012,01,14,13,57,3.50
2012,01,14,13,58,3.50
2012,01,14,13,59,3.50
2012,01,14,14,00,3.50
2012,01,14,14,01,3.50
2012,01,14,14,02,3.50
2012,01,14,14,03,3.50
2012,01,14,14,04,3.50
2012,01,14,14,05,3.50
2012,01,14,14,06,3.50
2012,01,14,14,07,3.60
2012,01,14,14,08,3.60
2012,01,14,14,09,3.70
2012,01,14,14,10,3.70
2012,01,14,14,11,3.70
2012,01,14,14,12,3.60
2012,01,14,14,13,3.60
2012,01,14,14,14,3.60
2012,01,14,14,15,3.60
2012,01,14,14,16,3.50
2012,01,14,14,17,3.50
2012,01,14,14,18,3.50
2012,01,14,14,19,3.60
2012,01,14,14,20,3.60
2012,01,14,14,21,3.60
2012,01,14,14,22,3.60
2012,01,14,14,23,3.50
2012,01,14,14,24,3.50
2012,01,14,14,25,3.50
2012,01,14,14,26,3.50
2012,01,14,14,27,3.50
2012,01,14,14,28,3.50
2012,01,14,14,29,3.50
2012,01,14,14,30,3.50
2012,01,14,14,31,3.50
2012,01,14,14,32,3.50
2012,01,14,14,33,3.40
2012,01,14,14,34,3.30
2012,01,14,14,35,3.20
2012,01,14,14,36,3.20
2012,01,14,14,37,3.10
2012,01,14,14,38,3.00
2012,01,14,14,39,2.90
2012,01,14,14,40,2.80
2012,01,14,14,41,2.50
2012,01,14,14,42,2.30
2012,01,14,14,43,2.20
2012,01,14,14,44,2.00
2012,01,14,14,45,1.90
2012,01,14,14,46,1.80
2012,01,14,14,47,1.80
2012,01,14,14,48,1.80
2012,01,14,14,49,1.80
2012,01,14,14,50,1.70
2012,01,14,14,51,1.70
2012,01,14,14,52,1.70
2012,01,14,14,53,1.70
2012,01,14,14,54,1.70
2012,01,14,14,55,1.70
2012,01,14,14,56,1.70
2012,01,14,14,57,1.70
2012,01,14,14,58,1.70
2012,01,14,14,59,1.70
2012,01,14,15,00,1.70
2012,01,14,15,01,1.70
2012,01,14,15,02,1.70
2012,01,14,15,03,1.70
2012,01,14,15,04,1.70
2012,01,14,15,05,1.70
2012,01,14,15,06,1.60
2012,01,14,15,07,1.60
2012,01,14,15,08,1.60
2012,01,14,15,09,1.60
2012,01,14,15,10,1.60
2012,01,14,15,11,1.60
2012,01,14,15,12,1.50
2012,01,14,15,13,1.50
2012,01,14,15,14,1.50
2012,01,14,15,15,1.50
2012,01,14,15,16,1.50
2012,01,14,15,17,1.50
2012,01,14,15,18,1.50
2012,01,14,15,19,1.50
2012,01,14,15,20,1.60
2012,01,14,15,21,1.60
2012,01,14,15,22,1.50
2012,01,14,15,23,1.50
2012,01,14,15,24,1.50
2012,01,14,15,25,1.50
2012,01,14,15,26,1.50
2012,01,14,15,27,1.50
2012,01,14,15,28,1.50
2012,01,14,15,29,1.50
2012,01,14,15,30,1.50
2012,01,14,15,31,1.60
2012,01,14,15,32,1.60
2012,01,14,15,33,1.60
2012,01,14,15,34,1.60
2012,01,14,15,35,1.60
2012,01,14,15,36,1.60
2012,01,14,15,37,1.60
2012,01,14,15,38,1.60
2012,01,14,15,39,1.60
2012,01,14,15,40,1.60
2012,01,14,15,41,1.60
2012,01,14,15,42,1.60
2012,01,14,15,43,1.70
2012,01,14,15,44,1.70
2012,01,14,15,45,1.70
2012,01,14,15,46,1.70
2012,01,14,15,47,1.70
2012,01,14,15,48,1.80
2012,01,14,15,49,1.80
2012,01,14,15,50,1.80
2012,01,14,15,51,1.80
2012,01,14,15,52,1.80
2012,01,14,15,53,1.80
2012,01,14,15,54,1.80
2012,01,14,15,55,1.80
2012,01,14,15,56,1.80
2012,01,14,15,57,1.80
2012,01,14,15,58,1.80
2012,01,14,15,59,1.80
2012,01,14,16,00,1.80
2012,01,14,16,01,1.80
2012,01,14,16,02,1.80
2012,01,14,16,03,1.80
2012,01,14,16,04,1.80
2012,01,14,16,05,1.80
2012,01,14,16,06,1.80
2012,01,14,16,07,1.90
2012,01,14,16,08,1.90
2012,01,14,16,09,1.90
2012,01,14,16,10,1.90
2012,01,14,16,11,1.90
2012,01,14,16,12,1.90
2012,01,14,16,13,1.90
2012,01,14,16,14,1.90
2012,01,14,16,15,1.90
2012,01,14,16,16,1.90
2012,01,14,16,17,1.90
2012,01,14,16,18,1.80
2012,01,14,16,19,1.80
2012,01,14,16,20,1.70
2012,01,14,16,21,1.70
2012,01,14,16,22,1.60
2012,01,14,16,23,1.60
2012,01,14,16,24,1.60
2012,01,14,16,25,1.60
2012,01,14,16,26,1.60
2012,01,14,16,27,1.60
2012,01,14,16,28,1.60
2012,01,14,16,29,1.50
2012,01,14,16,30,1.50
2012,01,14,16,31,1.50
2012,01,14,16,32,1.50
2012,01,14,16,33,1.50
2012,01,14,16,34,1.50
2012,01,14,16,35,1.40
2012,01,14,16,36,1.40
2012,01,14,16,37,1.30
2012,01,14,16,38,1.30
2012,01,14,16,39,1.30
2012,01,14,16,40,1.30
2012,01,14,16,41,1.30
2012,01,14,16,42,1.30
2012,01,14,16,43,1.30
2012,01,14,16,44,1.30
2012,01,14,16,45,1.30
2012,01,14,16,46,1.30
2012,01,14,16,47,1.30
2012,01,14,16,48,1.30
2012,01,14,16,49,1.30
2012,01,14,16,50,1.30
2012,01,14,16,51,1.30
2012,01,14,16,52,1.30
2012,01,14,16,53,1.30
2012,01,14,16,54,1.30
2012,01,14,16,55,1.30
2012,01,14,16,56,1.30
2012,01,14,16,57,1.40
2012,01,14,16,58,1.30
2012,01,14,16,59,1.40
2012,01,14,17,00,1.40
2012,01,14,17,01,1.40
2012,01,14,17,02,1.40
2012,01,14,17,03,1.40
2012,01,14,17,04,1.40
2012,01,14,17,05,1.40
2012,01,14,17,06,1.40
2012,01,14,17,07,1.50
2012,01,14,17,08,1.50
2012,01,14,17,09,1.50
2012,01,14,17,10,1.50
2012,01,14,17,11,1.50
2012,01,14,17,12,1.50
2012,01,14,17,13,1.50
2012,01,14,17,14,1.60
2012,01,14,17,15,1.60
2012,01,14,17,16,1.50
2012,01,14,17,17,1.50
2012,01,14,17,18,1.50
2012,01,14,17,19,1.50
2012,01,14,17,20,1.50
2012,01,14,17,21,1.50
2012,01,14,17,22,1.50
2012,01,14,17,23,1.50
2012,01,14,17,24,1.50
2012,01,14,17,25,1.50
2012,01,14,17,26,1.50
2012,01,14,17,27,1.50
2012,01,14,17,28,1.50
2012,01,14,17,29,1.50
2012,01,14,17,30,1.50
2012,01,14,17,31,1.50
2012,01,14,17,32,1.50
2012,01,14,17,33,1.50
2012,01,14,17,34,1.50
2012,01,14,17,35,1.50
2012,01,14,17,36,1.50
2012,01,14,17,37,1.50
2012,01,14,17,38,1.50
2012,01,14,17,39,1.50
2012,01,14,17,40,1.50
2012,01,14,17,41,1.50
2012,01,14,17,42,1.50
2012,01,14,17,43,1.50
2012,01,14,17,44,1.50
2012,01,14,17,45,1.50
2012,01,14,17,46,1.50
2012,01,14,17,47,1.50
2012,01,14,17,48,1.50
